sat.trackr.live / text

‹ back to catalog

CSG-2

NORAD 51444 · 2022-008A

PAYLOAD ACTIVE UNKNOWN

§ Identity

Operator
Country
IT
Launch date
2022-01-31
Launch site
AFETR
Launch vehicle
Mass (kg)
RCS (m²)

Purposes: earth_obs

External: N2YO · Heavens-Above · Gunter

§ Orbital elements

Epoch: 2026-09-20T03:21:32.752224Z

Period
97.16 min
Inclination
97.8917°
Eccentricity
0.0001400
Mean motion
14.82154852 rev/d
Perigee alt
621.6 km
Apogee alt
623.5 km
Semi-major
7,000.7 km
B*
4.4654e-5
RAAN
85.3855°
Arg perigee
81.9636°
Mean anomaly
278.1735°
Rev number
25,065

§ Raw data

CSG-21 51444U 22008A   26263.13996241  .00000303  00000+0  44654-4 0  99962 51444  97.8917  85.3855 0001400  81.9636 278.1735 14.82154852250654

JSON: /api/v1/satellites/51444 · /tle

For live sub-satellite position, see the globe view (requires WebGL).

§ Visibility from observer

Set your observer location to see the next 7 days of passes ≥ 10°. The values pass through the URL so the page stays shareable.

No JS? Fill the form by hand. The geolocation button needs JavaScript.